Time,TemperatureF,DewpointF,PressureIn,WindDirection,WindDirectionDegrees,WindSpeedMPH,WindSpeedGustMPH,Humidity,HourlyPrecipIn,Conditions,Clouds,dailyrainin,SoftwareType,DateUTC
2013-04-25 00:03:00,55.0,49.0,29.90,South,180,2.0,5.0,81,0.00,,,0.00,,2013-04-25 04:03:00,
2013-04-25 00:12:00,55.0,50.0,29.90,South,175,1.0,5.0,82,0.00,,,0.00,,2013-04-25 04:12:00,
2013-04-25 00:23:00,55.0,50.0,29.90,South,175,1.0,5.0,82,0.00,,,0.00,,2013-04-25 04:23:00,
2013-04-25 00:33:00,55.0,50.0,29.93,SSE,160,1.0,1.0,83,0.00,,,0.00,,2013-04-25 04:33:00,
2013-04-25 00:43:00,55.0,50.0,29.93,SSE,160,1.0,1.0,83,0.00,,,0.00,,2013-04-25 04:43:00,
2013-04-25 00:52:00,55.0,50.0,29.93,SSW,195,1.0,2.0,83,0.00,,,0.00,,2013-04-25 04:52:00,
2013-04-25 01:02:00,55.0,50.0,29.93,South,180,1.0,1.0,83,0.00,,,0.00,,2013-04-25 05:02:00,
2013-04-25 01:12:00,55.0,50.0,29.93,South,180,1.0,1.0,83,0.00,,,0.00,,2013-04-25 05:12:00,
2013-04-25 01:22:00,55.0,50.0,29.93,SW,225,0.0,2.0,83,0.00,,,0.00,,2013-04-25 05:22:00,
2013-04-25 01:32:00,54.0,49.0,29.93,SSW,195,1.0,2.0,83,0.00,,,0.00,,2013-04-25 05:32:00,
2013-04-25 01:42:00,54.0,49.0,29.93,SSW,195,1.0,2.0,83,0.00,,,0.00,,2013-04-25 05:42:00,
2013-04-25 01:52:00,53.0,48.0,29.93,SE,135,0.0,0.0,84,0.00,,,0.00,,2013-04-25 05:52:00,
2013-04-25 02:02:00,53.0,49.0,29.93,SE,135,0.0,0.0,85,0.00,,,0.00,,2013-04-25 06:02:00,
2013-04-25 02:12:00,53.0,49.0,29.93,SE,135,0.0,0.0,85,0.00,,,0.00,,2013-04-25 06:12:00,
2013-04-25 02:22:00,55.0,52.0,29.96,West,275,2.0,5.0,89,0.00,,,0.00,,2013-04-25 06:22:00,
2013-04-25 02:32:00,56.0,53.0,29.96,NW,315,3.0,8.0,89,0.00,,,0.00,,2013-04-25 06:32:00,
2013-04-25 02:42:00,56.0,53.0,29.96,NW,315,3.0,8.0,89,0.00,,,0.00,,2013-04-25 06:42:00,
2013-04-25 02:52:00,59.0,46.0,29.98,NW,310,10.0,17.0,62,0.00,,,0.00,,2013-04-25 06:52:00,
2013-04-25 03:02:00,59.0,46.0,29.98,NW,320,12.0,17.0,61,0.00,,,0.00,,2013-04-25 07:02:00,
2013-04-25 03:12:00,58.0,42.0,30.01,NW,325,15.0,18.0,55,0.00,,,0.00,,2013-04-25 07:12:00,
2013-04-25 03:22:00,58.0,42.0,30.01,NW,325,15.0,18.0,55,0.00,,,0.00,,2013-04-25 07:22:00,
2013-04-25 03:32:00,57.0,41.0,30.01,NW,320,15.0,18.0,54,0.00,,,0.00,,2013-04-25 07:32:00,
2013-04-25 03:42:00,57.0,41.0,30.01,NW,320,15.0,18.0,54,0.00,,,0.00,,2013-04-25 07:42:00,
2013-04-25 03:52:00,56.0,40.0,30.01,NW,315,13.0,15.0,55,0.00,,,0.00,,2013-04-25 07:52:00,
2013-04-25 04:02:00,56.0,39.0,30.01,NW,325,13.0,16.0,53,0.00,,,0.00,,2013-04-25 08:02:00,
2013-04-25 04:11:00,56.0,39.0,30.01,NW,325,13.0,16.0,53,0.00,,,0.00,,2013-04-25 08:11:00,
2013-04-25 04:21:00,55.0,38.0,30.04,NNW,330,13.0,15.0,53,0.00,,,0.00,,2013-04-25 08:21:00,
2013-04-25 04:32:00,54.0,37.0,30.04,NW,325,14.0,18.0,52,0.00,,,0.00,,2013-04-25 08:32:00,
2013-04-25 04:42:00,54.0,37.0,30.04,NW,325,14.0,18.0,52,0.00,,,0.00,,2013-04-25 08:42:00,
2013-04-25 04:52:00,53.0,35.0,30.07,NNW,335,16.0,18.0,50,0.00,,,0.00,,2013-04-25 08:52:00,
2013-04-25 05:01:00,53.0,35.0,30.07,NW,325,16.0,21.0,51,0.00,,,0.00,,2013-04-25 09:01:00,
2013-04-25 05:11:00,53.0,35.0,30.07,NW,325,16.0,21.0,51,0.00,,,0.00,,2013-04-25 09:11:00,
2013-04-25 05:21:00,51.0,31.0,30.10,NW,325,17.0,22.0,47,0.00,,,0.00,,2013-04-25 09:21:00,
2013-04-25 05:33:00,51.0,33.0,30.10,NW,320,17.0,18.0,49,0.00,,,0.00,,2013-04-25 09:33:00,
2013-04-25 05:42:00,51.0,33.0,30.10,NW,320,17.0,18.0,49,0.00,,,0.00,,2013-04-25 09:42:00,
2013-04-25 05:53:00,49.0,34.0,30.10,NNW,340,17.0,20.0,55,0.00,,,0.00,,2013-04-25 09:53:00,
2013-04-25 06:02:00,49.0,34.0,30.10,NW,325,17.0,21.0,55,0.00,,,0.00,,2013-04-25 10:02:00,
2013-04-25 06:12:00,49.0,34.0,30.10,NW,325,17.0,21.0,55,0.00,,,0.00,,2013-04-25 10:12:00,
2013-04-25 06:22:00,47.0,33.0,30.13,NNW,330,17.0,21.0,59,0.00,,,0.00,,2013-04-25 10:22:00,
2013-04-25 06:32:00,47.0,34.0,30.13,NW,325,16.0,17.0,60,0.00,,,0.00,,2013-04-25 10:32:00,
2013-04-25 06:42:00,47.0,34.0,30.13,NW,325,16.0,17.0,60,0.00,,,0.00,,2013-04-25 10:42:00,
2013-04-25 06:53:00,48.0,33.0,30.16,NW,320,15.0,21.0,56,0.00,,,0.00,,2013-04-25 10:53:00,
2013-04-25 07:02:00,48.0,34.0,30.16,NW,310,15.0,15.0,57,0.00,,,0.00,,2013-04-25 11:02:00,
2013-04-25 07:12:00,48.0,34.0,30.16,NW,310,15.0,15.0,57,0.00,,,0.00,,2013-04-25 11:12:00,
2013-04-25 07:22:00,49.0,34.0,30.16,NW,320,14.0,15.0,55,0.00,,,0.00,,2013-04-25 11:22:00,
2013-04-25 07:32:00,49.0,34.0,30.16,NW,320,14.0,15.0,55,0.00,,,0.00,,2013-04-25 11:32:00,
2013-04-25 07:42:00,49.0,34.0,30.16,NW,320,14.0,15.0,55,0.00,,,0.00,,2013-04-25 11:42:00,
2013-04-25 07:52:00,48.0,30.0,30.19,NW,315,16.0,18.0,49,0.00,,,0.00,,2013-04-25 11:52:00,
2013-04-25 08:01:00,48.0,30.0,30.22,NW,310,16.0,17.0,49,0.00,,,0.00,,2013-04-25 12:01:00,
2013-04-25 08:12:00,48.0,30.0,30.22,NW,310,16.0,17.0,49,0.00,,,0.00,,2013-04-25 12:12:00,
2013-04-25 08:21:00,49.0,30.0,30.22,NW,315,13.0,14.0,48,0.00,,,0.00,,2013-04-25 12:21:00,
2013-04-25 08:32:00,49.0,31.0,30.22,NNW,330,13.0,14.0,49,0.00,,,0.00,,2013-04-25 12:32:00,
2013-04-25 08:42:00,49.0,31.0,30.22,NNW,330,13.0,14.0,49,0.00,,,0.00,,2013-04-25 12:42:00,
2013-04-25 08:52:00,48.0,29.0,30.22,NNW,340,12.0,16.0,48,0.00,,,0.00,,2013-04-25 12:52:00,
2013-04-25 09:02:00,49.0,29.0,30.22,NNW,340,12.0,12.0,46,0.00,,,0.00,,2013-04-25 13:02:00,
2013-04-25 09:11:00,49.0,29.0,30.22,NNW,340,12.0,12.0,46,0.00,,,0.00,,2013-04-25 13:11:00,
2013-04-25 09:21:00,51.0,30.0,30.22,NNW,335,12.0,15.0,44,0.00,,,0.00,,2013-04-25 13:21:00,
2013-04-25 09:32:00,51.0,28.0,30.22,NNW,345,12.0,14.0,41,0.00,,,0.00,,2013-04-25 13:32:00,
2013-04-25 09:42:00,51.0,28.0,30.22,NNW,345,12.0,14.0,41,0.00,,,0.00,,2013-04-25 13:42:00,
2013-04-25 09:53:00,51.0,28.0,30.22,NW,325,12.0,13.0,40,0.00,,,0.00,,2013-04-25 13:53:00,
2013-04-25 10:02:00,52.0,28.0,30.22,NW,315,12.0,14.0,40,0.00,,,0.00,,2013-04-25 14:02:00,
2013-04-25 10:11:00,52.0,28.0,30.22,NW,315,12.0,14.0,40,0.00,,,0.00,,2013-04-25 14:11:00,
2013-04-25 10:21:00,52.0,28.0,30.22,NW,325,12.0,14.0,39,0.00,,,0.00,,2013-04-25 14:21:00,
2013-04-25 10:32:00,53.0,29.0,30.22,NNW,330,12.0,13.0,39,0.00,,,0.00,,2013-04-25 14:32:00,
2013-04-25 10:42:00,53.0,29.0,30.22,NNW,330,12.0,13.0,39,0.00,,,0.00,,2013-04-25 14:42:00,
2013-04-25 10:52:00,54.0,30.0,30.22,NW,325,10.0,14.0,39,0.00,,,0.00,,2013-04-25 14:52:00,
2013-04-25 11:02:00,55.0,31.0,30.22,NW,315,10.0,12.0,39,0.00,,,0.00,,2013-04-25 15:02:00,
2013-04-25 11:11:00,55.0,31.0,30.22,NW,315,10.0,12.0,39,0.00,,,0.00,,2013-04-25 15:11:00,
2013-04-25 11:21:00,56.0,31.0,30.25,NW,310,9.0,12.0,39,0.00,,,0.00,,2013-04-25 15:21:00,
2013-04-25 11:33:00,55.0,31.0,30.25,NW,320,10.0,14.0,39,0.00,,,0.00,,2013-04-25 15:33:00,
2013-04-25 11:42:00,55.0,31.0,30.25,NW,320,10.0,14.0,39,0.00,,,0.00,,2013-04-25 15:42:00,
2013-04-25 11:53:00,56.0,31.0,30.25,NW,310,12.0,13.0,39,0.00,,,0.00,,2013-04-25 15:53:00,
2013-04-25 12:02:00,57.0,32.0,30.25,NW,310,12.0,13.0,39,0.00,,,0.00,,2013-04-25 16:02:00,
2013-04-25 12:13:00,57.0,32.0,30.25,NW,310,12.0,13.0,39,0.00,,,0.00,,2013-04-25 16:13:00,
2013-04-25 12:24:00,58.0,33.0,30.22,WNW,295,12.0,15.0,39,0.00,,,0.00,,2013-04-25 16:24:00,
2013-04-25 12:32:00,57.0,32.0,30.22,NW,305,13.0,16.0,39,0.00,,,0.00,,2013-04-25 16:32:00,
2013-04-25 12:43:00,57.0,32.0,30.22,NW,305,13.0,16.0,39,0.00,,,0.00,,2013-04-25 16:43:00,
2013-04-25 12:52:00,58.0,33.0,30.25,NW,310,10.0,16.0,39,0.00,,,0.00,,2013-04-25 16:52:00,
2013-04-25 13:02:00,58.0,33.0,30.22,NW,325,12.0,15.0,39,0.00,,,0.00,,2013-04-25 17:02:00,
2013-04-25 13:11:00,58.0,33.0,30.22,NW,325,12.0,15.0,39,0.00,,,0.00,,2013-04-25 17:11:00,
2013-04-25 13:22:00,58.0,33.0,30.22,WNW,290,10.0,13.0,39,0.00,,,0.00,,2013-04-25 17:22:00,
2013-04-25 13:32:00,58.0,33.0,30.22,West,260,10.0,12.0,39,0.00,,,0.00,,2013-04-25 17:32:00,
2013-04-25 13:42:00,58.0,33.0,30.22,West,260,10.0,12.0,39,0.00,,,0.00,,2013-04-25 17:42:00,
2013-04-25 13:53:00,59.0,34.0,30.22,WNW,295,10.0,14.0,39,0.00,,,0.00,,2013-04-25 17:53:00,
2013-04-25 14:01:00,58.0,33.0,30.22,WNW,295,10.0,15.0,39,0.00,,,0.00,,2013-04-25 18:01:00,
2013-04-25 14:11:00,58.0,33.0,30.22,WNW,295,10.0,15.0,39,0.00,,,0.00,,2013-04-25 18:11:00,
2013-04-25 14:22:00,59.0,34.0,30.22,WNW,295,12.0,15.0,39,0.00,,,0.00,,2013-04-25 18:22:00,
2013-04-25 14:32:00,59.0,34.0,30.22,WNW,290,10.0,12.0,39,0.00,,,0.00,,2013-04-25 18:32:00,
2013-04-25 14:42:00,59.0,34.0,30.22,WNW,290,10.0,12.0,39,0.00,,,0.00,,2013-04-25 18:42:00,
2013-04-25 14:53:00,59.0,34.0,30.22,WNW,290,13.0,16.0,39,0.00,,,0.00,,2013-04-25 18:53:00,
2013-04-25 15:01:00,60.0,35.0,30.22,WNW,290,12.0,17.0,39,0.00,,,0.00,,2013-04-25 19:01:00,
2013-04-25 15:12:00,60.0,35.0,30.22,WNW,290,12.0,17.0,39,0.00,,,0.00,,2013-04-25 19:12:00,
2013-04-25 15:21:00,60.0,35.0,30.22,NW,320,9.0,17.0,39,0.00,,,0.00,,2013-04-25 19:21:00,
2013-04-25 15:31:00,60.0,35.0,30.22,West,265,9.0,10.0,39,0.00,,,0.00,,2013-04-25 19:31:00,
2013-04-25 15:42:00,60.0,35.0,30.22,West,265,9.0,10.0,39,0.00,,,0.00,,2013-04-25 19:42:00,
2013-04-25 15:52:00,60.0,35.0,30.22,NW,315,10.0,14.0,39,0.00,,,0.00,,2013-04-25 19:52:00,
2013-04-25 16:02:00,60.0,35.0,30.19,NW,305,10.0,10.0,39,0.00,,,0.00,,2013-04-25 20:02:00,
2013-04-25 16:11:00,60.0,35.0,30.19,NW,305,10.0,10.0,39,0.00,,,0.00,,2013-04-25 20:11:00,
2013-04-25 16:22:00,61.0,36.0,30.22,NW,315,8.0,12.0,39,0.00,,,0.00,,2013-04-25 20:22:00,
2013-04-25 16:32:00,60.0,35.0,30.22,WNW,285,8.0,13.0,39,0.00,,,0.00,,2013-04-25 20:32:00,
2013-04-25 16:42:00,60.0,35.0,30.22,WNW,285,8.0,13.0,39,0.00,,,0.00,,2013-04-25 20:42:00,
2013-04-25 16:52:00,63.0,38.0,30.22,NNW,330,7.0,9.0,39,0.00,,,0.00,,2013-04-25 20:52:00,
2013-04-25 17:01:00,62.0,37.0,30.22,WNW,300,6.0,9.0,39,0.00,,,0.00,,2013-04-25 21:01:00,
2013-04-25 17:11:00,62.0,37.0,30.22,WNW,300,6.0,9.0,39,0.00,,,0.00,,2013-04-25 21:11:00,
2013-04-25 17:22:00,63.0,38.0,30.22,WNW,295,6.0,9.0,39,0.00,,,0.00,,2013-04-25 21:22:00,
2013-04-25 17:33:00,63.0,38.0,30.22,West,280,6.0,9.0,39,0.00,,,0.00,,2013-04-25 21:33:00,
2013-04-25 17:42:00,63.0,38.0,30.22,West,280,6.0,9.0,39,0.00,,,0.00,,2013-04-25 21:42:00,
2013-04-25 17:53:00,62.0,37.0,30.22,NW,315,7.0,9.0,39,0.00,,,0.00,,2013-04-25 21:53:00,
2013-04-25 18:03:00,63.0,38.0,30.22,WSW,250,7.0,7.0,39,0.00,,,0.00,,2013-04-25 22:03:00,
2013-04-25 18:12:00,63.0,38.0,30.22,WSW,250,7.0,7.0,39,0.00,,,0.00,,2013-04-25 22:12:00,
2013-04-25 18:22:00,62.0,37.0,30.22,West,275,5.0,6.0,39,0.00,,,0.00,,2013-04-25 22:22:00,
2013-04-25 18:33:00,62.0,37.0,30.22,West,275,3.0,5.0,39,0.00,,,0.00,,2013-04-25 22:33:00,
2013-04-25 18:42:00,62.0,37.0,30.22,West,275,3.0,5.0,39,0.00,,,0.00,,2013-04-25 22:42:00,
2013-04-25 18:53:00,61.0,36.0,30.22,WSW,255,2.0,5.0,39,0.00,,,0.00,,2013-04-25 22:53:00,
2013-04-25 19:02:00,60.0,35.0,30.22,SW,215,2.0,2.0,39,0.00,,,0.00,,2013-04-25 23:02:00,
2013-04-25 19:12:00,60.0,35.0,30.22,SW,215,2.0,2.0,39,0.00,,,0.00,,2013-04-25 23:12:00,
2013-04-25 19:22:00,59.0,34.0,30.22,NNW,330,0.0,0.0,39,0.00,,,0.00,,2013-04-25 23:22:00,
2013-04-25 19:32:00,58.0,34.0,30.22,SW,225,0.0,0.0,40,0.00,,,0.00,,2013-04-25 23:32:00,
2013-04-25 19:42:00,58.0,34.0,30.22,SW,225,0.0,0.0,40,0.00,,,0.00,,2013-04-25 23:42:00,
2013-04-25 19:52:00,56.0,34.0,30.22,SW,225,0.0,0.0,44,0.00,,,0.00,,2013-04-25 23:52:00,
2013-04-25 20:01:00,55.0,35.0,30.22,SW,225,0.0,0.0,46,0.00,,,0.00,,2013-04-26 00:01:00,
2013-04-25 20:11:00,55.0,35.0,30.22,SW,225,0.0,0.0,46,0.00,,,0.00,,2013-04-26 00:11:00,
2013-04-25 20:21:00,52.0,34.0,30.22,SW,225,0.0,0.0,50,0.00,,,0.00,,2013-04-26 00:21:00,
2013-04-25 20:32:00,51.0,34.0,30.22,SW,225,0.0,0.0,51,0.00,,,0.00,,2013-04-26 00:32:00,
2013-04-25 20:42:00,51.0,34.0,30.22,SW,225,0.0,0.0,51,0.00,,,0.00,,2013-04-26 00:42:00,
2013-04-25 20:52:00,49.0,34.0,30.25,SW,225,0.0,0.0,55,0.00,,,0.00,,2013-04-26 00:52:00,
2013-04-25 21:01:00,49.0,34.0,30.25,NNW,335,0.0,0.0,57,0.00,,,0.00,,2013-04-26 01:01:00,
2013-04-25 21:11:00,49.0,34.0,30.25,NNW,335,0.0,0.0,57,0.00,,,0.00,,2013-04-26 01:11:00,
2013-04-25 21:21:00,48.0,35.0,30.25,South,190,0.0,0.0,60,0.00,,,0.00,,2013-04-26 01:21:00,
2013-04-25 21:32:00,48.0,35.0,30.25,SW,220,0.0,0.0,61,0.00,,,0.00,,2013-04-26 01:32:00,
2013-04-25 21:42:00,48.0,35.0,30.25,SW,220,0.0,0.0,61,0.00,,,0.00,,2013-04-26 01:42:00,
2013-04-25 21:52:00,47.0,35.0,30.28,SW,230,0.0,0.0,63,0.00,,,0.00,,2013-04-26 01:52:00,
2013-04-25 22:02:00,47.0,35.0,30.28,SW,230,0.0,0.0,63,0.00,,,0.00,,2013-04-26 02:02:00,
2013-04-25 22:11:00,47.0,35.0,30.28,SW,230,0.0,0.0,63,0.00,,,0.00,,2013-04-26 02:11:00,
2013-04-25 22:21:00,46.0,34.0,30.28,SW,230,0.0,0.0,63,0.00,,,0.00,,2013-04-26 02:21:00,
2013-04-25 22:32:00,45.0,34.0,30.28,SW,230,0.0,0.0,64,0.00,,,0.00,,2013-04-26 02:32:00,
2013-04-25 22:42:00,45.0,34.0,30.28,SW,230,0.0,0.0,64,0.00,,,0.00,,2013-04-26 02:42:00,
2013-04-25 22:52:00,45.0,34.0,30.28,SW,230,0.0,0.0,66,0.00,,,0.00,,2013-04-26 02:52:00,
2013-04-25 23:01:00,45.0,35.0,30.28,SW,230,0.0,0.0,67,0.00,,,0.00,,2013-04-26 03:01:00,
2013-04-25 23:11:00,45.0,35.0,30.28,SW,230,0.0,0.0,67,0.00,,,0.00,,2013-04-26 03:11:00,
2013-04-25 23:22:00,44.0,34.0,30.28,SW,230,0.0,0.0,69,0.00,,,0.00,,2013-04-26 03:22:00,
2013-04-25 23:33:00,44.0,34.0,30.28,SW,230,0.0,0.0,69,0.00,,,0.00,,2013-04-26 03:33:00,
2013-04-25 23:43:00,44.0,34.0,30.28,SW,230,0.0,0.0,69,0.00,,,0.00,,2013-04-26 03:43:00,
2013-04-25 23:53:00,43.0,34.0,30.28,SW,230,0.0,0.0,70,0.00,,,0.00,,2013-04-26 03:53:00,